{"data":{"norad_id":62961,"intl_designator":"2025-029P","name":"STARLINK-32889","alt_names":[],"object_type":"PAYLOAD","status":"ACTIVE","operator":null,"country":"US","launch_date":"2025-02-11","launch_site_code":"AFWTR","launch_vehicle":null,"mission":null,"orbit_class":"UNKNOWN","rcs_meters":null,"size_class":null,"mass_kg":null,"dimensions":null,"purposes":["comms"],"wikipedia_slug":null,"has_3d_model":false,"image_url":null,"decayed_at":null,"tle_current":{"epoch":"2026-09-21T17:30:59.309568Z","epoch_age_seconds":59346,"freshness":"FRESH","line1":"1 62961U 25029P   26264.72985312  .00015925  00000+0  48140-3 0  9990","line2":"2 62961  53.1592  39.6420 0001014  79.3210 280.7907 15.34403616 91368","mean_motion":15.34403616,"eccentricity":0.0001014,"inclination_deg":53.1592,"raan_deg":39.642,"arg_perigee_deg":79.321,"mean_anomaly_deg":280.7907,"bstar":0.0004814,"rev_number":9136,"period_min":93.847536918213,"perigee_km":461.99883260361,"apogee_km":463.38615282474,"semimajor_km":6840.8294927142,"source":"CELESTRAK","updated_at":"2026-09-22T09:00:49.713827Z"}}}